軌道要素
Epoch 2005 Sept. 27.0 TT = JDT 2453640.5
T 2005 Oct. 10.53821 TT MPC
q 0.6493991 (2000.0) P Q
n 0.03438660 Peri. 41.44465 +0.94407728 -0.29535699
a 9.3657652 Node 25.42183 -0.31017808 -0.94631791
e 0.9306625 Incl. 160.03602 +0.11183761 -0.13132655
P 28.7
From 28 observations 2005 Oct. 14-31, mean residual 0".6.
|